Location: Albany
(35.0170°S, 117.8920°E)
Time: 01:52:50
(UTC+08:00)

Explorer 7 - Pass Details

Date: 29 January 2021
Orbit: 484 x 677 km, 50.3° (Epoch: 01 March)

Event Time Altitude Azimuth Distance (km) Brightness Sun altitude
Rises 15:07:14 0° 284° (WNW) 3,033 11.3 49.5°
Reaches altitude 10° 15:09:49 10° 273° (W) 2,125 10.7 49.0°
Maximum altitude 15:14:15 32° 210° (SSW) 1,157 9.0 48.1°
Drops below altitude 10° 15:18:38 10° 146° (SE) 2,101 9.6 47.2°
Sets 15:21:11 0° 136° (SE) 2,994 10.2 46.7°
